DECAYED

STARLINK-4488, 53534 (Decayed)

Orbit data source: Space-Track

STARLINK-4488, 53534 was a payload satellite owned by SpaceX/Seattle (US) in LEO that was launched on Fri, 19 Aug 2022 UTC via an FALCON 9 launch vehicle from the Air Force Eastern Test Range (AFETR). Payload-class satellites include a variety of spacecraft equipped with specific instruments for various scientific and technological missions. These include communications satellites like Starlink; space stations such as the ISS; scientific satellites like the Hubble; Earth observation satellites from companies like Planet Labs, Umbra, and HawkEye 360; GPS; miniature CubeSats for education and research; and military/defense satellites.

Not visible in the next 10 days
Identifier
53534, 2022-101H
Orbit
Decayed
Country
Flag of USUS
Related business
Manufacturer
SpaceX/Seattle
Mission
Decayed Commercial Communications
Bus & Motor
STARLINK, Unknown motor
Mass
300 kg wet, ~290 kg dry
Launch date (UTC)
2022-08-19 (4 years ago)
Launch vehicle
FALCON 9
Launch site
Air Force Eastern Test Range (AFETR)
Object type
Payload
Rocket body
Debris
Shape & HBR
Box + 1 Pan, 10.1 m
Radar Cross Section
13.562 m², Large (>1 m²)

Expand to show TLE details & history
Last TLE update: 1 year ago

TLE from 1 year ago
0 STARLINK-4488
1 53534U 22101H   25013.81578263  .05695459  12692-4  10000-3 0  9998
2 53534  53.1735 135.6870 0012558   8.5684 130.2842 16.46737672133093
Epoch: 2025-01-13T19:34Z
TLE epoch observation values (Epoch: 2025-01-13T19:34:43.619Z)
Latitude
31.81003°
Longitude
-119.02884°
Altitude
155.247 km
Speed
7.814 km/s
True Right ascension
19h 12m 44s
True Declination
31° 38' 31"
Sunlit
Object was in daylight at epoch
Visualization orbit readout
Latitude
Unknown
Longitude
Unknown
Altitude
Unknown
Speed
Unknown
Apparent Right ascension
Unknown
Apparent Declination
Unknown
Sunlit
N/A
Visualization observer readout
Local Sidereal Time
21:28:33
Azimuth
Unknown
Elevation
Unknown
Doppler factor
Unknown
Orbital elements
Apogee altitude
156.403 km
Perigee altitude
140.011 km
Semi-major axis
6,526.344 km
Eccentricity
0.00126
Inclination
53.1735°
RAAN
135.687°
Arg. of periapsis
8.5684°
True anomaly
130.39387°
Mean anomaly
130.2842°
Eccentric anomaly
130.33904°
Mean motion
4.1166 °/min
Orbital period
87.45 mins
BSTAR
0.0001
Loading maneuver chart data...
Computing Atmospheric mass density...
Loading historical data...
Loading historical data...
Loading historical data...
Loading historical data...
Loading historical data...
Loading historical data...
Loading historical data...

Documentation

Showing up to 5 results
|